Theta_e
317 314 314 315 309 317 320 323 323 321 322 328 330 329 330 332 333 330 327 330 329 323 322 323 322 319 318 315 315 313 320 323 324 320 320 317 320 319 321 328 326 327 325 325 332
313 316 313 314 314 308 318 320 323 323 321 324 328 329 330 331 330 325 330 328 327 323 322 322 321 316 317 318 316 317 320 321 321 318 320 319 320 321 325 328 328 329 328 328 333
311 314 315 312 314 313 310 319 321 323 321 322 324 327 329 329 327 327 330 324 323 322 321 322 320 315 319 316 318 317 320 318 319 315 315 319 318 320 324 327 325 326 328 329 332
313 313 314 315 312 313 310 316 320 322 322 321 322 324 328 327 333 326 328 322 321 322 321 320 317 317 320 323 317 323 320 321 320 314 315 318 316 318 322 323 318 321 326 329 331
313 311 313 313 313 312 313 312 319 320 323 322 322 325 326 326 326 323 324 322 319 320 321 316 318 319 323 319 317 320 321 319 319 319 318 313 316 318 318 317 319 321 327 330 331
313 312 312 313 313 311 313 310 317 319 322 322 322 324 324 327 323 323 323 321 319 320 319 319 317 318 321 321 321 321 318 320 319 315 313 315 314 312 314 314 323 326 327 328 330
314 313 312 312 311 312 313 313 314 318 321 321 322 323 322 325 322 322 324 325 324 320 321 321 321 319 319 324 321 324 326 323 319 319 317 313 316 314 313 316 319 324 325 325 327
314 313 312 312 311 312 313 313 313 318 319 321 322 323 322 320 321 321 323 322 322 322 320 321 321 321 320 317 315 325 326 331 327 313 315 316 330 317 312 317 317 320 323 324 325
315 313 312 311 310 310 313 312 312 317 318 319 322 320 323 319 322 322 322 322 322 321 321 321 322 323 323 321 322 317 322 327 329 314 315 315 321 316 313 317 316 316 320 323 324
310 312 313 311 310 310 313 312 312 316 317 318 317 319 316 321 320 321 321 321 321 320 321 321 323 327 325 326 332 324 322 321 326 323 314 316 316 313 313 313 316 314 315 319 322
310 309 312 311 309 310 313 313 311 312 315 315 317 314 314 318 320 320 320 320 320 322 326 323 326 327 327 326 323 318 320 320 319 320 316 316 316 316 314 313 314 313 312 312 315
309 308 312 310 310 310 313 311 309 309 314 308 311 312 315 317 321 320 320 322 322 325 322 324 328 323 324 326 327 324 324 323 320 319 319 320 320 319 315 314 314 315 315 313 312
309 308 311 311 310 312 311 309 309 310 309 311 310 314 316 316 320 321 320 321 323 323 323 326 322 322 324 326 327 326 327 325 324 321 318 317 319 318 315 315 316 313 316 316 315
307 307 307 311 311 311 310 308 309 308 304 311 311 310 313 314 318 318 319 320 322 323 321 323 320 323 324 325 324 326 322 324 325 326 326 317 322 319 311 314 315 315 314 315 315
307 308 307 311 310 311 309 309 310 306 310 307 309 308 310 315 313 318 318 318 322 323 322 322 321 322 324 323 322 324 321 323 323 325 324 323 326 323 317 317 315 315 314 314 314
308 307 309 311 310 310 309 309 307 310 311 311 309 311 312 312 313 317 319 317 316 321 320 319 317 319 320 320 321 319 321 321 321 323 328 326 325 320 318 318 317 317 316 315 313
307 305 303 310 311 309 309 308 309 311 302 310 311 312 311 312 314 314 319 321 322 323 323 321 321 318 318 321 320 322 322 326 327 325 327 313 322 323 314 313 316 316 315 313 312
306 305 305 309 309 308 309 309 310 300 304 306 309 311 311 311 312 314 314 317 318 316 319 321 324 320 318 321 323 324 323 325 326 324 320 314 320 318 314 315 315 312 312 310 311
305 305 309 309 308 309 310 311 307 298 304 307 309 311 310 310 311 312 313 312 315 316 316 319 319 316 317 317 320 322 325 316 315 299 312 314 314 312 311 312 313 313 312 312 311
306 308 308 308 308 308 309 308 303 303 306 306 310 309 310 311 310 308 311 309 311 313 314 314 317 315 316 317 318 321 320 324 318 323 319 316 313 317 313 313 313 313 314 314 310
306 304 309 308 309 309 310 301 307 305 306 305 306 310 307 310 307 310 307 306 309 310 313 316 315 317 316 319 321 321 323 321 321 319 321 315 316 308 313 313 312 311 311 309 308
304 304 308 309 310 308 309 303 307 308 306 308 306 305 305 307 309 309 306 305 305 310 314 313 316 317 316 316 314 318 320 320 323 319 315 314 321 308 308 308 308 308 307 306 305
303 308 309 308 307 307 304 305 306 308 307 308 306 307 307 306 308 307 306 305 305 309 311 312 314 310 316 316 316 319 319 319 319 317 317 318 320 308 308 307 306 304 304 302 302
306 309 308 301 302 306 305 307 307 304 305 304 306 307 306 306 304 306 307 308 306 307 311 313 309 311 310 312 314 320 320 320 321 323 322 321 319 316 310 309 308 308 305 303 303
299 301 300 305 305 306 305 305 307 307 305 303 305 306 306 309 307 302 307 308 306 310 310 311 313 310 309 311 312 314 316 319 321 320 323 320 318 318 316 315 314 312 307 310 311
301 302 299 300 302 303 305 305 307 302 305 305 304 306 306 306 307 306 306 309 311 308 307 308 309 311 312 310 309 311 311 311 313 316 317 319 319 317 315 312 309 306 307 309 310
293 295 303 303 302 301 297 303 302 300 301 302 303 303 304 304 304 305 305 305 305 309 311 312 310 307 311 308 309 312 311 311 309 309 311 313 313 313 315 314 310 310 309 311 311
Wind_Speed
33 36 32 29 32 30 26 26 25 26 26 24 27 23 23 23 21 15 10 10 13 5 3 5 2 2 3 3 3 2 4 2 3 5 3 3 4 1 1 4 2 3 2 1 18
36 33 36 31 29 32 30 26 27 25 27 25 25 26 24 25 23 14 15 14 11 9 5 7 3 2 3 2 3 3 3 8 3 3 2 3 3 7 4 3 3 2 2 2 23
39 35 35 36 32 29 31 27 27 26 27 26 24 24 30 31 6 10 29 14 11 12 6 6 9 4 2 1 1 2 5 4 2 2 2 3 3 4 6 3 7 7 5 11 19
39 38 36 36 36 32 31 31 26 27 26 25 24 21 24 23 9 6 18 14 12 13 11 8 3 5 4 4 2 2 4 3 1 4 3 3 5 4 5 5 2 7 7 15 18
43 40 39 36 37 34 31 32 28 26 25 25 24 21 25 7 3 6 21 18 14 13 11 5 3 4 6 4 3 3 3 3 5 3 3 4 3 4 6 8 2 5 10 14 17
45 42 40 37 36 36 33 33 30 26 26 25 24 23 7 10 5 7 23 21 14 10 6 5 6 4 5 3 4 2 2 4 3 2 3 4 3 3 4 3 3 5 7 9 16
46 45 40 40 36 36 34 31 31 28 25 25 24 25 4 9 6 13 18 21 18 13 4 4 2 1 6 3 2 1 2 4 4 3 4 3 5 7 6 5 6 7 7 8 13
44 45 42 41 38 36 33 31 30 27 25 26 24 18 5 11 10 14 20 17 16 14 6 4 6 4 3 1 5 3 1 2 3 5 3 6 11 5 8 6 9 8 7 7 9
38 46 43 43 39 36 34 30 29 25 25 26 22 7 7 13 15 22 23 21 19 20 12 6 3 2 1 4 3 5 4 4 5 7 2 6 7 5 1 7 9 8 7 6 7
25 36 44 44 40 38 35 30 26 19 19 20 1 5 0 5 13 22 16 27 8 20 5 3 3 2 1 3 8 5 3 3 5 3 4 4 13 7 4 5 10 6 6 7 9
24 33 46 46 43 41 35 27 8 3 5 5 5 5 7 11 19 10 31 16 11 6 9 7 8 14 10 10 2 4 2 3 3 4 4 7 12 11 8 5 8 8 8 9 11
28 33 39 47 44 42 37 13 29 9 10 2 5 5 4 5 5 14 23 8 7 7 9 5 16 9 9 9 5 2 1 3 4 2 3 7 11 12 7 7 9 14 14 11 10
31 33 38 47 44 41 39 38 30 29 6 3 2 4 5 5 7 13 11 6 10 8 10 6 2 12 11 7 9 9 5 4 4 5 3 5 10 13 7 9 12 10 17 14 16
34 37 40 48 41 38 30 41 27 18 4 4 6 6 4 3 3 9 8 3 3 10 7 2 3 17 14 15 13 13 11 6 6 3 5 3 8 12 4 9 9 16 14 19 17
35 33 38 50 34 26 44 38 31 3 9 9 2 3 4 4 5 4 5 2 8 7 6 5 9 11 10 6 10 3 7 10 9 10 5 8 6 7 3 6 11 13 15 17 18
35 30 27 44 33 36 47 39 13 6 7 6 7 9 7 2 4 4 6 3 4 5 3 5 3 8 6 7 15 8 6 4 3 3 8 12 10 4 7 9 8 13 16 12 12
36 30 30 47 24 52 53 15 5 5 2 8 7 12 11 7 6 5 14 7 6 8 10 4 4 1 5 5 3 6 8 3 3 3 9 4 9 16 6 8 11 15 15 11 8
39 33 38 42 48 55 38 9 4 3 7 4 10 15 11 9 2 3 8 12 13 3 5 8 5 13 5 6 5 8 6 4 7 6 3 2 8 6 15 16 17 14 12 7 9
39 30 40 37 59 52 16 12 6 7 8 11 18 18 7 5 6 5 10 10 10 12 7 7 6 3 5 3 10 5 6 2 2 2 2 4 8 8 10 14 9 12 11 17 13
30 19 35 56 57 36 12 6 4 7 12 15 7 11 13 19 7 10 12 7 10 18 4 3 1 0 6 5 5 6 9 3 2 5 5 6 6 9 2 8 14 11 13 14 5
23 6 35 56 49 16 16 4 6 4 11 6 6 8 14 16 10 14 10 1 10 8 15 3 4 2 6 7 13 5 6 4 3 3 4 3 6 7 14 13 10 8 8 8 8
6 4 43 53 13 8 15 11 7 6 4 5 6 5 7 15 14 10 10 8 8 12 17 9 3 3 7 1 2 8 12 13 7 11 3 2 16 4 5 5 5 10 9 8 9
6 9 38 42 7 6 8 5 4 5 4 3 4 2 2 8 8 5 7 5 7 14 13 9 5 3 2 1 3 7 13 14 16 2 7 4 14 5 2 5 9 9 8 8 9
7 10 9 3 2 15 19 10 6 4 5 6 5 5 6 6 4 12 6 1 3 6 7 14 3 12 15 4 4 5 13 15 13 6 15 14 31 33 5 6 10 11 8 8 7
3 3 2 6 8 15 13 7 16 7 1 4 3 2 7 5 4 1 5 4 5 3 3 6 5 5 13 2 2 2 1 13 18 24 11 29 19 35 18 16 17 14 13 19 21
5 5 5 5 13 20 7 8 19 5 4 4 8 11 4 6 7 7 8 4 3 3 2 1 2 5 5 4 7 12 13 14 16 12 9 25 27 42 13 11 7 9 11 16 19
4 3 7 7 6 9 5 11 11 9 8 6 14 7 5 5 11 8 4 4 5 6 3 3 2 2 20 5 3 8 19 16 18 16 20 17 35 34 27 16 6 10 15 18 16
Wind_Direction
226 226 232 232 227 225 224 222 222 220 220 217 217 212 214 207 201 196 222 215 206 179 137 146 134 26 67 66 27 131 76 170 217 162 245 159 162 36 143 122 203 202 166 268 166
228 226 228 230 229 225 223 221 221 219 219 217 217 214 212 205 190 206 219 217 201 182 168 157 133 80 44 60 20 82 133 204 209 181 263 200 190 165 154 127 242 273 206 154 164
228 226 223 227 228 229 222 219 218 215 219 215 217 219 211 188 172 212 210 204 183 175 167 150 134 106 98 74 142 158 188 206 211 182 173 210 186 176 134 225 222 208 176 158 174
226 223 223 222 228 229 225 217 216 216 214 215 217 213 213 182 208 139 195 183 178 175 152 130 88 105 127 170 155 161 252 246 203 106 122 195 125 183 202 214 229 227 160 166 184
224 222 222 220 222 226 227 218 213 212 210 213 212 201 186 204 220 143 169 172 156 157 160 126 108 127 159 164 126 156 247 216 259 247 203 130 229 212 239 246 1 121 153 178 191
221 223 218 219 218 221 224 220 212 207 205 206 204 190 171 228 195 160 175 152 133 106 55 49 164 173 113 139 166 195 249 294 318 311 175 165 218 164 249 155 153 159 186 192 195
216 218 217 217 218 216 219 218 212 205 202 204 200 177 170 213 194 176 172 177 169 114 50 40 71 333 146 142 302 88 3 333 238 225 272 146 283 208 230 158 203 214 200 206 214
217 214 215 215 212 212 214 212 208 203 201 199 197 176 202 161 175 172 182 166 159 146 186 101 92 101 47 186 38 134 118 180 269 152 262 165 253 250 226 182 225 224 226 216 221
214 207 213 212 209 206 206 206 201 198 197 196 178 196 174 147 157 172 171 142 142 139 160 170 57 88 354 99 53 10 209 195 294 202 137 190 260 246 59 204 238 228 217 232 232
218 214 207 209 205 198 199 196 191 183 183 190 123 199 172 183 142 157 157 143 125 120 123 111 58 83 133 139 226 197 222 224 205 247 191 218 261 271 277 221 244 272 247 233 239
219 224 210 202 199 192 184 152 128 158 182 202 180 141 143 126 140 162 150 136 135 158 172 170 177 194 171 223 145 81 237 203 251 267 207 233 252 253 251 227 260 254 246 238 239
206 197 210 198 193 185 164 170 180 170 145 290 104 78 97 128 140 158 160 151 164 168 128 147 210 188 124 148 149 129 204 254 272 300 231 282 265 261 240 237 224 240 251 240 241
208 210 204 192 184 173 168 183 177 150 127 72 164 169 147 152 172 171 177 134 168 148 175 185 188 147 155 149 168 207 230 236 230 335 280 308 273 262 240 233 241 227 234 239 233
206 209 210 182 170 169 172 179 167 164 96 192 180 209 104 195 179 155 169 143 154 188 186 194 159 153 171 184 181 214 184 186 317 350 259 17 287 275 271 244 242 245 226 236 234
205 204 193 181 167 174 167 165 175 148 175 166 170 119 164 167 119 186 141 66 152 146 166 166 161 164 186 187 178 219 166 189 200 233 279 228 271 268 248 244 254 252 239 238 234
200 198 186 182 167 162 156 165 157 140 192 150 142 159 126 96 11 120 170 146 151 123 148 180 159 173 187 161 180 146 107 75 79 112 251 246 217 216 227 223 238 245 248 242 236
195 188 207 177 167 155 155 145 141 184 230 142 154 163 152 158 142 163 188 183 162 171 197 151 157 178 153 114 124 176 136 191 187 185 247 322 200 246 256 245 227 242 252 250 241
189 187 203 181 155 153 149 155 143 108 174 181 140 159 172 143 136 140 147 205 203 130 137 188 211 189 180 180 174 185 176 179 199 193 254 43 229 250 230 248 252 248 262 277 267
182 182 165 166 154 154 152 186 145 181 165 142 136 165 149 171 120 140 188 203 203 190 178 177 231 83 185 142 164 166 207 74 129 72 34 217 283 282 238 260 262 258 262 264 254
172 203 176 152 154 151 158 129 120 148 121 138 126 180 172 178 140 169 171 199 205 202 86 191 112 5 179 132 215 203 132 181 172 198 239 254 268 233 294 249 257 262 260 272 296
162 169 155 153 151 155 178 140 130 125 122 135 131 143 181 180 174 186 190 150 177 167 192 207 145 39 140 199 189 165 192 188 132 181 208 275 259 215 219 241 254 282 280 278 276
152 153 153 151 154 166 171 143 129 119 80 104 88 93 142 174 182 188 202 214 190 149 190 185 94 178 208 185 344 224 200 202 215 223 251 195 269 159 216 252 243 268 284 287 275
126 124 153 153 152 134 115 87 91 131 104 95 109 93 110 150 173 171 177 217 173 176 171 169 210 140 272 297 266 222 216 217 225 23 221 194 262 66 193 284 279 271 297 305 297
133 138 139 88 77 140 135 132 115 32 81 95 109 97 105 149 60 182 157 176 202 169 156 163 155 207 217 177 145 198 198 214 212 230 250 245 265 265 255 297 300 293 289 286 287
33 79 78 125 135 135 123 123 144 128 19 112 90 193 140 132 143 74 128 120 56 121 137 170 216 210 247 302 34 133 219 222 224 235 233 253 257 270 253 257 262 271 297 297 292
110 137 73 82 121 126 119 151 154 117 144 135 124 150 129 151 179 164 151 140 150 59 119 39 235 175 267 221 232 255 257 234 240 259 292 270 267 260 282 296 291 265 271 270 280
84 56 112 116 121 121 173 154 148 124 25 130 140 128 162 99 109 125 106 134 136 135 140 156 162 225 256 169 144 263 229 238 243 226 226 244 252 283 277 261 297 284 270 273 274